Simultaneous Nadir Overpasses (SNOs) Predictions

Prediction of SNOs between AURA and NPP Satellite Orbit:

Table of predicted SNOs for the next 14.0 days since TLE Epoch: 11/4/2023
Index Date (AURA) Time (AURA) Lat,Lon (AURA) SZA (AURA ) Date (NPP) Time (NPP) Lat,Lon (NPP) SZA (NPP ) Distance(km) Time Diff (sec)
1 11/04/2023 06:21:11 -80.06, 166.70 74.26 11/04/2023 06:20:32 -80.06, 166.74 74.24 0.74 39
2 11/04/2023 07:10:32 80.17, -24.68 105.59 11/04/2023 07:11:13 80.16, -24.81 105.58 2.54 41
3 11/06/2023 20:56:44 -80.00, -52.68 73.39 11/06/2023 20:56:00 -80.00, -52.77 73.34 1.65 44
4 11/06/2023 21:46:02 80.21, 116.79 106.31 11/06/2023 21:46:37 80.21, 116.88 106.27 1.91 35
5 11/09/2023 11:32:13 -79.99, 88.40 72.63 11/09/2023 11:31:25 -79.98, 88.26 72.57 2.71 48
6 11/09/2023 12:21:31 80.20,-102.16 107.08 11/09/2023 12:22:02 80.20,-102.11 107.05 1.10 31
7 11/12/2023 02:07:41 -80.00,-130.35 71.92 11/12/2023 02:06:50 -80.00,-130.48 71.86 2.55 51
8 11/12/2023 02:56:59 80.21, 39.07 107.79 11/12/2023 02:57:27 80.21, 39.14 107.76 1.48 28
9 11/14/2023 16:43:08 -80.00, 10.78 71.22 11/14/2023 16:42:15 -80.00, 10.72 71.17 1.17 53
10 11/14/2023 17:32:25 80.24,-179.52 108.44 11/14/2023 17:32:51 80.24,-179.36 108.40 3.09 26
11 11/17/2023 07:18:32 -80.05, 152.38 70.63 11/17/2023 07:17:38 -80.06, 152.45 70.61 1.54 54



Historial Predications of SNOs between AURA and NPP
